Voltar ao catálogo

STARLINK-31875

AtivoComunicaçõesVLEO
NORAD 59674·PAYLOAD·🇺🇸 United States

Lançado May 6, 2024 de Cape Canaveral Space Force Station

Loading…

Próximas Passagens (próximas 24 horas)

TLE

AtualizadoSource: CelesTrak SupGP

Época: Sep 14, 2026, 14:21 UTC

1 59674C 24084W   26257.59840278 -.00037634  00000+0 -13631-2 0  2571
2 59674  43.0005  51.3686 0001534 269.1679 160.1954 15.27596048    11

Acompanhe STARLINK-31875 em tempo real com AllMySat

Download on the App Store